Location: Brunembert
(50.7122°N, 1.8935°E)
Time: 05:03:17
(UTC+00:00)

ARIANE 5 R/B - Pass Details

Date: 22 April 2021
Orbit: 620 x 656 km, 98.1° (Epoch: 02 May)

Event Time Altitude Azimuth Distance (km) Brightness Sun altitude
Exits shadow 20:04:04 13° 117° (ESE) 1,815 4.3 -9.9°
Maximum altitude 20:07:10 28° 63° (ENE) 1,204 3.8 -10.3°
Drops below altitude 10° 20:10:53 10° 6° (N) 2,015 5.6 -10.8°
Sets 20:13:18 0° 354° (N) 2,923 6.7 -11.1°
